Weather Roundup
Issued by NWS Springfield, MO

Home | Current Version | Previous Version | Text Only | Print | Product List | Glossary On
Versions: 1 2 3 4 5 6 7 8 9 10 11 12 13 14 15 16 17 18 19 20 21 22 23 24 25 26 27 28 29 30 31 32 33 34 35 36 37 38 39 40 41 42 43 44 45 46 47 48 49 50
000
NZUS99 KSGF 222307
HRRSGF

HOURLY WEATHER
NATIONAL WEATHER SERVICE SPRINGFIELD MO
500 PM CST WED NOV 22 2017

......SGF CWA......

CITY           SKY/WX    TMP DP  RH WIND       PRES   REMARKS
SPRINGFIELD    CLEAR     41  20  43 SW3       30.24F
JOPLIN         CLEAR     42  21  43 CALM      30.26F
WEST PLAINS    CLEAR     43  12  28 CALM      30.25F
ROLLA          CLEAR     38  14  37 CALM      30.27F
OSAGE BEACH    CLEAR     40  11  30 CALM      30.28F
BRANSON        PTCLDY    41  18  38 CALM      30.27S

......SURROUNDING SGF CWA......

CITY           SKY/WX    TMP DP  RH WIND       PRES   REMARKS
CHANUTE        CLOUDY    40  19  43 S7        30.26F
PARSONS        CLEAR     41  19  41 W5        30.27F
COFFEYVILLE    CLEAR     43  21  41 CALM      30.27F
EMPORIA        CLEAR     42  17  36 S9        30.22F
GROVE OK       CLEAR     43  27  52 CALM      30.28F
ROGERS AR      CLEAR     45  19  35 CALM      30.25F
SILOAM SPRINGS CLEAR     44  21  40 NW5       30.27F
HARRISON AR    CLEAR     43  17  35 NW3       30.26S
NEAR YELLVILLE CLEAR     45  18  34 NW3       30.28F

......KANSAS AND MISSOURI......

CITY           SKY/WX    TMP DP  RH WIND       PRES   REMARKS
KANSAS CTY INT MOCLDY    37  17  44 S8        30.23S WCI  31
DOWNTOWN KC    CLOUDY    40  16  37 S8        30.24F WCI  34
COLUMBIA       CLEAR     39  12  33 CALM      30.27F
SEDALIA        CLEAR     40  17  39 S3        30.26F
ST JOSEPH      CLOUDY    39  16  39 S10       30.21F WCI  32
ST LOUIS       MOCLDY    37  17  44 CALM      30.29F
SPIRIT OF STL  MOCLDY    34  21  59 CALM      30.30S
KIRKSVILLE     CLEAR     33  15  47 S6        30.23F WCI  28
WICHITA        PTCLDY    45  20  36 S13       30.22S
TOPEKA         CLEAR     43  17  35 S9        30.21F
OLATHE         CLOUDY    39  16  39 S6        30.24S WCI  35

......TENNESSEE......

CITY           SKY/WX    TMP DP  RH WIND       PRES   REMARKS
MEMPHIS        CLEAR     42  26  53 NW10      30.26R
NASHVILLE      CLEAR     43  24  47 N9        30.22S

......ARKANSAS.......

CITY           SKY/WX    TMP DP  RH WIND       PRES   REMARKS
FAYETTEVILLE   CLEAR     42  23  46 CALM      30.26F
FT SMITH       CLEAR     51  22  31 SW6       30.27F
LITTLE ROCK    PTCLDY    44  20  38 N7        30.28S

......OKLAHOMA.......

CITY           SKY/WX    TMP DP  RH WIND       PRES   REMARKS
TULSA          PTCLDY    45  19  35 N3        30.28F
PONCA CITY     CLEAR     44  18  35 S5        30.25F
MCALESTER      CLEAR     49  21  33 N6        30.29F
OKLAHOMA CITY  MOCLDY    48  13  24 CALM      30.26F

......IOWA............

CITY           SKY/WX    TMP DP  RH WIND       PRES   REMARKS
DES MOINES     CLOUDY    37  13  37 S10       30.17F WCI  30
QUAD CITIES    MOCLDY    33  16  49 SW5       30.24  WCI  29

......ILLINOIS........

CITY           SKY/WX    TMP DP  RH WIND       PRES   REMARKS
QUINCY         CLOUDY    35  16  45 S3        30.26F
CHICAGO        CLOUDY    32  16  51 SW5       30.24F WCI  27




USA.gov is the U.S. government's official web portal to all federal, state and local government web resources and services.